Time,TemperatureF,DewpointF,PressureIn,WindDirection,WindDirectionDegrees,WindSpeedMPH,WindSpeedGustMPH,Humidity,HourlyPrecipIn,Conditions,Clouds,dailyrainin,SoftwareType,DateUTC
2013-05-12 00:02:00,77.8,44.8,29.96,WSW,254,0.0,1.0,31,0.00,,CLR,0.00,VWS V14.01,2013-05-12 07:02:00,
2013-05-12 00:07:00,77.6,44.6,29.96,WSW,254,0.0,3.0,31,0.00,,CLR,0.00,VWS V14.01,2013-05-12 07:07:00,
2013-05-12 00:12:00,77.5,44.5,29.96,WSW,254,0.0,2.0,31,0.00,,CLR,0.00,VWS V14.01,2013-05-12 07:12:00,
2013-05-12 00:17:00,77.3,43.5,29.96,WSW,254,0.0,2.0,30,0.00,,CLR,0.00,VWS V14.01,2013-05-12 07:17:00,
2013-05-12 00:22:00,77.3,43.5,29.96,WSW,254,0.0,1.0,30,0.00,,CLR,0.00,VWS V14.01,2013-05-12 07:22:00,
2013-05-12 00:27:00,77.4,43.6,29.96,WSW,254,0.0,4.0,30,0.00,,CLR,0.00,VWS V14.01,2013-05-12 07:27:00,
2013-05-12 00:32:00,77.4,42.7,29.96,WSW,254,2.0,2.0,29,0.00,,CLR,0.00,VWS V14.01,2013-05-12 07:32:00,
2013-05-12 00:37:00,77.6,42.9,29.96,West,259,0.0,8.0,29,0.00,,CLR,0.00,VWS V14.01,2013-05-12 07:37:00,
2013-05-12 00:42:00,77.8,42.1,29.96,West,260,1.0,5.0,28,0.00,,CLR,0.00,VWS V14.01,2013-05-12 07:42:00,
2013-05-12 00:47:00,78.0,42.3,29.96,West,270,5.0,10.0,28,0.00,,CLR,0.00,VWS V14.01,2013-05-12 07:47:00,
2013-05-12 00:52:00,78.2,42.5,29.96,West,277,0.0,11.0,28,0.00,,CLR,0.00,VWS V14.01,2013-05-12 07:52:00,
2013-05-12 00:58:00,78.4,43.5,29.96,West,274,2.0,11.0,29,0.00,,CLR,0.00,VWS V14.01,2013-05-12 07:58:00,
2013-05-12 01:03:00,78.5,43.6,29.96,West,277,6.0,12.0,29,0.00,,CLR,0.00,VWS V14.01,2013-05-12 08:03:00,
2013-05-12 01:08:00,78.6,43.7,29.96,West,276,5.0,12.0,29,0.00,,CLR,0.00,VWS V14.01,2013-05-12 08:08:00,
2013-05-12 01:13:00,78.7,43.8,29.96,West,278,2.0,11.0,29,0.00,,CLR,0.00,VWS V14.01,2013-05-12 08:13:00,
2013-05-12 01:18:00,78.5,43.6,29.96,WNW,282,6.0,9.0,29,0.00,,CLR,0.00,VWS V14.01,2013-05-12 08:18:00,
2013-05-12 01:23:00,78.4,44.4,29.96,WNW,284,5.0,7.0,30,0.00,,CLR,0.00,VWS V14.01,2013-05-12 08:23:00,
2013-05-12 01:28:00,78.3,44.3,29.96,West,277,0.0,8.0,30,0.00,,CLR,0.00,VWS V14.01,2013-05-12 08:28:00,
2013-05-12 01:33:00,78.2,44.3,29.96,West,277,1.0,9.0,30,0.00,,CLR,0.00,VWS V14.01,2013-05-12 08:33:00,
2013-05-12 01:38:00,78.1,44.2,29.96,West,277,7.0,7.0,30,0.00,,CLR,0.00,VWS V14.01,2013-05-12 08:38:00,
2013-05-12 01:43:00,78.0,45.0,29.96,West,277,0.0,7.0,31,0.00,,CLR,0.00,VWS V14.01,2013-05-12 08:43:00,
2013-05-12 01:48:00,77.7,44.7,29.96,West,277,8.0,8.0,31,0.00,,CLR,0.00,VWS V14.01,2013-05-12 08:48:00,
2013-05-12 01:53:00,77.6,44.6,29.96,West,277,0.0,6.0,31,0.00,,CLR,0.00,VWS V14.01,2013-05-12 08:53:00,
2013-05-12 01:58:00,77.5,44.5,29.96,West,273,0.0,6.0,31,0.00,,CLR,0.00,VWS V14.01,2013-05-12 08:58:00,
2013-05-12 02:03:00,77.4,45.3,29.96,West,279,5.0,12.0,32,0.00,,CLR,0.00,VWS V14.01,2013-05-12 09:03:00,
2013-05-12 02:08:00,77.4,44.4,29.95,West,275,4.0,9.0,31,0.00,,CLR,0.00,VWS V14.01,2013-05-12 09:08:00,
2013-05-12 02:14:00,77.5,44.5,29.96,West,276,7.0,8.0,31,0.00,,CLR,0.00,VWS V14.01,2013-05-12 09:14:00,
2013-05-12 02:19:00,77.5,44.5,29.95,WNW,283,5.0,11.0,31,0.00,,CLR,0.00,VWS V14.01,2013-05-12 09:19:00,
2013-05-12 02:24:00,77.6,44.6,29.95,West,279,8.0,11.0,31,0.00,,CLR,0.00,VWS V14.01,2013-05-12 09:24:00,
2013-05-12 02:29:00,77.6,44.6,29.95,WNW,282,0.0,8.0,31,0.00,,CLR,0.00,VWS V14.01,2013-05-12 09:29:00,
2013-05-12 02:34:00,77.5,44.5,29.95,West,278,2.0,9.0,31,0.00,,CLR,0.00,VWS V14.01,2013-05-12 09:34:00,
2013-05-12 02:39:00,77.5,44.5,29.95,West,280,6.0,8.0,31,0.00,,CLR,0.00,VWS V14.01,2013-05-12 09:39:00,
2013-05-12 02:44:00,77.6,44.6,29.95,WNW,282,6.0,9.0,31,0.00,,CLR,0.00,VWS V14.01,2013-05-12 09:44:00,
2013-05-12 02:49:00,77.6,43.7,29.95,WNW,282,7.0,8.0,30,0.00,,CLR,0.00,VWS V14.01,2013-05-12 09:49:00,
2013-05-12 02:54:00,77.6,43.7,29.95,WNW,284,0.0,9.0,30,0.00,,CLR,0.00,VWS V14.01,2013-05-12 09:54:00,
2013-05-12 02:59:00,77.5,44.5,29.95,WNW,283,0.0,4.0,31,0.00,,CLR,0.00,VWS V14.01,2013-05-12 09:59:00,
2013-05-12 03:04:00,77.3,44.3,29.95,WNW,284,1.0,6.0,31,0.00,,CLR,0.00,VWS V14.01,2013-05-12 10:04:00,
2013-05-12 03:09:00,77.2,44.2,29.95,WNW,284,0.0,6.0,31,0.00,,CLR,0.00,VWS V14.01,2013-05-12 10:09:00,
2013-05-12 03:14:00,77.1,44.2,29.95,WNW,284,0.0,8.0,31,0.00,,CLR,0.00,VWS V14.01,2013-05-12 10:14:00,
2013-05-12 03:19:00,77.0,44.9,29.95,WNW,284,0.0,2.0,32,0.00,,CLR,0.00,VWS V14.01,2013-05-12 10:19:00,
2013-05-12 03:25:00,76.8,44.7,29.95,WNW,284,0.0,4.0,32,0.00,,CLR,0.00,VWS V14.01,2013-05-12 10:25:00,
2013-05-12 03:30:00,76.4,44.4,29.95,WNW,284,0.0,2.0,32,0.00,,CLR,0.00,VWS V14.01,2013-05-12 10:30:00,
2013-05-12 03:35:00,75.9,44.8,29.95,WNW,284,0.0,0.0,33,0.00,,CLR,0.00,VWS V14.01,2013-05-12 10:35:00,
2013-05-12 03:40:00,75.4,45.1,29.95,WNW,284,0.0,0.0,34,0.00,,CLR,0.00,VWS V14.01,2013-05-12 10:40:00,
2013-05-12 03:45:00,74.9,44.7,29.95,WNW,284,0.0,0.0,34,0.00,,CLR,0.00,VWS V14.01,2013-05-12 10:45:00,
2013-05-12 03:50:00,74.4,44.2,29.95,WNW,284,0.0,0.0,34,0.00,,CLR,0.00,VWS V14.01,2013-05-12 10:50:00,
2013-05-12 03:55:00,73.8,45.2,29.95,WNW,284,0.0,0.0,36,0.00,,CLR,0.00,VWS V14.01,2013-05-12 10:55:00,
2013-05-12 04:00:00,73.1,45.3,29.95,WNW,284,0.0,0.0,37,0.00,,CLR,0.00,VWS V14.01,2013-05-12 11:00:00,
2013-05-12 04:05:00,72.4,45.4,29.94,WNW,284,0.0,0.0,38,0.00,,CLR,0.00,VWS V14.01,2013-05-12 11:05:00,
2013-05-12 04:10:00,71.6,45.4,29.95,WNW,284,0.0,0.0,39,0.00,,CLR,0.00,VWS V14.01,2013-05-12 11:10:00,
2013-05-12 04:15:00,70.9,44.7,29.95,WNW,284,0.0,0.0,39,0.00,,CLR,0.00,VWS V14.01,2013-05-12 11:15:00,
2013-05-12 04:20:00,70.3,45.5,29.95,WNW,284,0.0,0.0,41,0.00,,CLR,0.00,VWS V14.01,2013-05-12 11:20:00,
2013-05-12 04:25:00,69.7,45.6,29.94,WNW,284,0.0,0.0,42,0.00,,CLR,0.00,VWS V14.01,2013-05-12 11:25:00,
2013-05-12 04:30:00,69.1,45.7,29.94,WNW,284,0.0,0.0,43,0.00,,CLR,0.00,VWS V14.01,2013-05-12 11:30:00,
2013-05-12 04:35:00,68.5,45.1,29.95,WNW,284,0.0,0.0,43,0.00,,CLR,0.00,VWS V14.01,2013-05-12 11:35:00,
2013-05-12 04:41:00,67.9,45.8,29.95,WNW,284,0.0,0.0,45,0.00,,CLR,0.00,VWS V14.01,2013-05-12 11:41:00,
2013-05-12 04:46:00,67.5,45.4,29.95,WNW,284,0.0,0.0,45,0.00,,CLR,0.00,VWS V14.01,2013-05-12 11:46:00,
2013-05-12 04:51:00,67.0,45.6,29.95,WNW,284,0.0,0.0,46,0.00,,CLR,0.00,VWS V14.01,2013-05-12 11:51:00,
2013-05-12 04:56:00,66.7,45.3,29.95,WNW,284,0.0,0.0,46,0.00,,CLR,0.00,VWS V14.01,2013-05-12 11:56:00,
2013-05-12 05:01:00,66.3,44.9,29.95,WNW,284,0.0,0.0,46,0.00,,CLR,0.00,VWS V14.01,2013-05-12 12:01:00,
2013-05-12 05:06:00,66.0,44.7,29.95,WNW,284,0.0,0.0,46,0.00,,CLR,0.00,VWS V14.01,2013-05-12 12:06:00,
2013-05-12 05:11:00,65.8,45.0,29.95,WNW,284,0.0,0.0,47,0.00,,CLR,0.00,VWS V14.01,2013-05-12 12:11:00,
2013-05-12 05:16:00,65.5,44.8,29.95,WNW,284,0.0,0.0,47,0.00,,CLR,0.00,VWS V14.01,2013-05-12 12:16:00,
2013-05-12 05:21:00,65.3,44.6,29.95,WNW,284,0.0,0.0,47,0.00,,CLR,0.00,VWS V14.01,2013-05-12 12:21:00,
2013-05-12 05:26:00,65.0,44.8,29.95,WNW,284,0.0,0.0,48,0.00,,CLR,0.00,VWS V14.01,2013-05-12 12:26:00,
2013-05-12 05:31:00,64.8,44.7,29.95,WNW,284,0.0,0.0,48,0.00,,CLR,0.00,VWS V14.01,2013-05-12 12:31:00,
2013-05-12 05:36:00,64.7,44.6,29.95,WNW,284,0.0,0.0,48,0.00,,CLR,0.00,VWS V14.01,2013-05-12 12:36:00,
2013-05-12 05:41:00,64.5,44.9,29.96,WNW,284,0.0,0.0,49,0.00,,CLR,0.00,VWS V14.01,2013-05-12 12:41:00,
2013-05-12 05:46:00,64.4,44.8,29.96,WNW,284,0.0,0.0,49,0.00,,CLR,0.00,VWS V14.01,2013-05-12 12:46:00,
2013-05-12 05:51:00,64.3,44.8,29.96,WNW,284,0.0,0.0,49,0.00,,CLR,0.00,VWS V14.01,2013-05-12 12:51:00,
2013-05-12 05:56:00,64.3,44.8,29.96,WNW,284,0.0,0.0,49,0.00,,CLR,0.00,VWS V14.01,2013-05-12 12:56:00,
2013-05-12 06:02:00,64.2,44.1,29.97,WNW,284,0.0,0.0,48,0.00,,CLR,0.00,VWS V14.01,2013-05-12 13:02:00,
2013-05-12 06:07:00,64.2,44.1,29.97,WNW,284,0.0,0.0,48,0.00,,CLR,0.00,VWS V14.01,2013-05-12 13:07:00,
2013-05-12 06:12:00,64.3,44.2,29.97,WNW,284,0.0,0.0,48,0.00,,CLR,0.00,VWS V14.01,2013-05-12 13:12:00,
2013-05-12 06:17:00,64.6,44.5,29.97,WNW,284,0.0,0.0,48,0.00,,CLR,0.00,VWS V14.01,2013-05-12 13:17:00,
2013-05-12 06:22:00,64.9,44.8,29.97,WNW,284,0.0,0.0,48,0.00,,CLR,0.00,VWS V14.01,2013-05-12 13:22:00,
2013-05-12 06:27:00,65.4,45.8,29.97,WNW,284,0.0,0.0,49,0.00,,CLR,0.00,VWS V14.01,2013-05-12 13:27:00,
2013-05-12 06:32:00,65.9,46.2,29.97,WNW,284,0.0,0.0,49,0.00,,CLR,0.00,VWS V14.01,2013-05-12 13:32:00,
2013-05-12 06:37:00,66.5,46.8,29.98,WNW,284,0.0,0.0,49,0.00,,CLR,0.00,VWS V14.01,2013-05-12 13:37:00,
2013-05-12 06:42:00,67.1,47.3,29.98,WNW,284,0.0,0.0,49,0.00,,CLR,0.00,VWS V14.01,2013-05-12 13:42:00,
2013-05-12 06:47:00,67.9,48.6,29.98,WNW,284,0.0,0.0,50,0.00,,CLR,0.00,VWS V14.01,2013-05-12 13:47:00,
2013-05-12 06:52:00,68.7,48.8,29.98,WNW,284,0.0,0.0,49,0.00,,CLR,0.00,VWS V14.01,2013-05-12 13:52:00,
2013-05-12 06:57:00,69.4,49.4,29.98,WNW,284,0.0,0.0,49,0.00,,CLR,0.00,VWS V14.01,2013-05-12 13:57:00,
2013-05-12 07:02:00,70.3,50.8,29.98,WNW,284,0.0,0.0,50,0.00,,CLR,0.00,VWS V14.01,2013-05-12 14:02:00,
2013-05-12 07:07:00,71.4,50.7,29.98,WNW,284,0.0,0.0,48,0.00,,CLR,0.00,VWS V14.01,2013-05-12 14:07:00,
2013-05-12 07:12:00,72.2,51.4,29.98,WNW,284,0.0,0.0,48,0.00,,CLR,0.00,VWS V14.01,2013-05-12 14:12:00,
2013-05-12 07:17:00,72.9,51.5,29.98,WNW,284,0.0,0.0,47,0.00,,CLR,0.00,VWS V14.01,2013-05-12 14:17:00,
2013-05-12 07:23:00,74.1,53.2,29.98,WNW,284,0.0,0.0,48,0.00,,CLR,0.00,VWS V14.01,2013-05-12 14:23:00,
2013-05-12 07:28:00,75.5,52.7,29.98,WNW,284,0.0,0.0,45,0.00,,CLR,0.00,VWS V14.01,2013-05-12 14:28:00,
2013-05-12 07:33:00,76.4,54.1,29.98,WNW,284,0.0,0.0,46,0.00,,CLR,0.00,VWS V14.01,2013-05-12 14:33:00,
2013-05-12 07:38:00,77.7,54.1,29.98,WNW,284,0.0,0.0,44,0.00,,CLR,0.00,VWS V14.01,2013-05-12 14:38:00,
2013-05-12 07:43:00,79.2,53.5,29.98,WNW,284,0.0,1.0,41,0.00,,CLR,0.00,VWS V14.01,2013-05-12 14:43:00,
2013-05-12 07:48:00,80.4,51.0,29.98,WNW,284,0.0,1.0,36,0.00,,CLR,0.00,VWS V14.01,2013-05-12 14:48:00,
2013-05-12 07:53:00,81.5,49.7,29.98,WNW,284,0.0,0.0,33,0.00,,CLR,0.00,VWS V14.01,2013-05-12 14:53:00,
2013-05-12 07:58:00,82.4,48.8,29.98,WNW,284,0.0,0.0,31,0.00,,CLR,0.00,VWS V14.01,2013-05-12 14:58:00,
2013-05-12 08:03:00,83.1,49.4,29.98,WNW,284,0.0,0.0,31,0.00,,CLR,0.00,VWS V14.01,2013-05-12 15:03:00,
2013-05-12 08:08:00,83.8,50.0,29.98,WNW,284,0.0,0.0,31,0.00,,CLR,0.00,VWS V14.01,2013-05-12 15:08:00,
2013-05-12 08:13:00,84.4,48.7,29.98,WNW,284,1.0,4.0,29,0.00,,CLR,0.00,VWS V14.01,2013-05-12 15:13:00,
2013-05-12 08:18:00,84.8,50.0,29.98,WNW,284,0.0,4.0,30,0.00,,CLR,0.00,VWS V14.01,2013-05-12 15:18:00,
2013-05-12 08:23:00,85.0,47.3,29.98,WNW,284,2.0,4.0,27,0.00,,CLR,0.00,VWS V14.01,2013-05-12 15:23:00,
2013-05-12 08:28:00,85.0,48.3,29.98,WNW,284,1.0,4.0,28,0.00,,CLR,0.00,VWS V14.01,2013-05-12 15:28:00,
2013-05-12 08:33:00,85.3,47.6,29.98,WNW,284,0.0,4.0,27,0.00,,CLR,0.00,VWS V14.01,2013-05-12 15:33:00,
2013-05-12 08:38:00,85.5,47.7,29.98,WNW,284,0.0,4.0,27,0.00,,CLR,0.00,VWS V14.01,2013-05-12 15:38:00,
2013-05-12 08:43:00,85.8,47.0,29.98,WNW,284,0.0,0.0,26,0.00,,CLR,0.00,VWS V14.01,2013-05-12 15:43:00,
2013-05-12 08:48:00,86.4,48.5,29.98,WNW,284,0.0,1.0,27,0.00,,CLR,0.00,VWS V14.01,2013-05-12 15:48:00,
2013-05-12 08:54:00,86.8,48.8,29.98,WNW,284,0.0,0.0,27,0.00,,CLR,0.00,VWS V14.01,2013-05-12 15:54:00,
2013-05-12 08:59:00,87.1,48.1,29.98,WNW,284,4.0,4.0,26,0.00,,CLR,0.00,VWS V14.01,2013-05-12 15:59:00,
2013-05-12 09:04:00,87.4,48.3,29.98,WNW,284,2.0,5.0,26,0.00,,CLR,0.00,VWS V14.01,2013-05-12 16:04:00,
2013-05-12 09:09:00,87.5,47.4,29.98,WNW,284,0.0,5.0,25,0.00,,CLR,0.00,VWS V14.01,2013-05-12 16:09:00,
2013-05-12 09:14:00,87.0,47.0,29.98,WNW,284,2.0,4.0,25,0.00,,CLR,0.00,VWS V14.01,2013-05-12 16:14:00,
2013-05-12 09:19:00,86.6,45.5,29.98,WNW,284,1.0,4.0,24,0.00,,CLR,0.00,VWS V14.01,2013-05-12 16:19:00,
2013-05-12 09:24:00,86.1,45.1,29.98,WNW,284,0.0,2.0,24,0.00,,CLR,0.00,VWS V14.01,2013-05-12 16:24:00,
2013-05-12 09:29:00,85.9,46.0,29.98,WNW,284,0.0,4.0,25,0.00,,CLR,0.00,VWS V14.01,2013-05-12 16:29:00,
2013-05-12 09:34:00,86.0,46.1,29.98,WNW,284,0.0,2.0,25,0.00,,CLR,0.00,VWS V14.01,2013-05-12 16:34:00,
2013-05-12 09:39:00,86.3,48.4,29.98,WNW,284,0.0,2.0,27,0.00,,CLR,0.00,VWS V14.01,2013-05-12 16:39:00,
2013-05-12 09:44:00,87.1,47.0,29.98,WNW,284,0.0,2.0,25,0.00,,CLR,0.00,VWS V14.01,2013-05-12 16:44:00,
2013-05-12 09:49:00,87.8,45.4,29.98,NW,311,2.0,4.0,23,0.00,,CLR,0.00,VWS V14.01,2013-05-12 16:49:00,
2013-05-12 09:54:00,88.3,47.0,29.98,NW,325,4.0,5.0,24,0.00,,CLR,0.00,VWS V14.01,2013-05-12 16:54:00,
2013-05-12 09:59:00,88.7,46.2,29.98,NW,325,0.0,4.0,23,0.00,,CLR,0.00,VWS V14.01,2013-05-12 16:59:00,
2013-05-12 10:04:00,89.1,49.8,29.97,NW,325,0.0,1.0,26,0.00,,CLR,0.00,VWS V14.01,2013-05-12 17:04:00,
2013-05-12 10:09:00,89.7,47.0,29.97,NE,50,4.0,6.0,23,0.00,,CLR,0.00,VWS V14.01,2013-05-12 17:09:00,
2013-05-12 10:14:00,89.8,45.9,29.97,ENE,57,0.0,5.0,22,0.00,,CLR,0.00,VWS V14.01,2013-05-12 17:14:00,
2013-05-12 10:20:00,89.4,45.6,29.97,NE,49,0.0,5.0,22,0.00,,CLR,0.00,VWS V14.01,2013-05-12 17:20:00,
2013-05-12 10:25:00,89.0,47.6,29.97,NE,48,0.0,2.0,24,0.00,,CLR,0.00,VWS V14.01,2013-05-12 17:25:00,
2013-05-12 10:30:00,89.0,45.3,29.97,NE,56,3.0,6.0,22,0.00,,CLR,0.00,VWS V14.01,2013-05-12 17:30:00,
2013-05-12 10:35:00,89.2,46.6,29.97,NE,56,0.0,5.0,23,0.00,,CLR,0.00,VWS V14.01,2013-05-12 17:35:00,
2013-05-12 10:40:00,89.6,49.2,29.96,NE,56,0.0,0.0,25,0.00,,CLR,0.00,VWS V14.01,2013-05-12 17:40:00,
2013-05-12 10:45:00,90.1,45.0,29.96,ENE,58,1.0,5.0,21,0.00,,CLR,0.00,VWS V14.01,2013-05-12 17:45:00,
2013-05-12 10:50:00,90.4,45.2,29.96,NE,55,1.0,1.0,21,0.00,,CLR,0.00,VWS V14.01,2013-05-12 17:50:00,
2013-05-12 10:55:00,90.2,47.4,29.96,NNE,20,3.0,5.0,23,0.00,,CLR,0.00,VWS V14.01,2013-05-12 17:55:00,
2013-05-12 11:00:00,90.2,46.2,29.96,NNE,20,0.0,0.0,22,0.00,,CLR,0.00,VWS V14.01,2013-05-12 18:00:00,
2013-05-12 11:05:00,90.6,45.4,29.96,NNE,21,0.0,4.0,21,0.00,,CLR,0.00,VWS V14.01,2013-05-12 18:05:00,
2013-05-12 11:10:00,91.1,45.8,29.96,NNE,21,0.0,0.0,21,0.00,,CLR,0.00,VWS V14.01,2013-05-12 18:10:00,
2013-05-12 11:15:00,91.6,47.4,29.96,NNE,30,3.0,4.0,22,0.00,,CLR,0.00,VWS V14.01,2013-05-12 18:15:00,
2013-05-12 11:20:00,91.9,45.1,29.96,NE,51,6.0,6.0,20,0.00,,CLR,0.00,VWS V14.01,2013-05-12 18:20:00,
2013-05-12 11:25:00,91.9,43.8,29.96,NE,53,3.0,6.0,19,0.00,,CLR,0.00,VWS V14.01,2013-05-12 18:25:00,
2013-05-12 11:30:00,92.0,45.2,29.95,NE,53,0.0,1.0,20,0.00,,CLR,0.00,VWS V14.01,2013-05-12 18:30:00,
2013-05-12 11:35:00,92.3,44.1,29.95,NE,53,0.0,2.0,19,0.00,,CLR,0.00,VWS V14.01,2013-05-12 18:35:00,
2013-05-12 11:40:00,92.9,41.7,29.95,ENE,61,5.0,7.0,17,0.00,,CLR,0.00,VWS V14.01,2013-05-12 18:40:00,
2013-05-12 11:46:00,93.0,40.2,29.95,ENE,61,0.0,7.0,16,0.00,,CLR,0.00,VWS V14.01,2013-05-12 18:46:00,
2013-05-12 11:51:00,93.2,43.4,29.95,ENE,63,0.0,0.0,18,0.00,,CLR,0.00,VWS V14.01,2013-05-12 18:51:00,
2013-05-12 11:56:00,93.4,40.5,29.95,ENE,63,2.0,2.0,16,0.00,,CLR,0.00,VWS V14.01,2013-05-12 18:56:00,
2013-05-12 12:01:00,93.1,40.3,29.95,ENE,63,0.0,1.0,16,0.00,,CLR,0.00,VWS V14.01,2013-05-12 19:01:00,
2013-05-12 12:06:00,93.3,43.5,29.94,ENE,63,2.0,2.0,18,0.00,,CLR,0.00,VWS V14.01,2013-05-12 19:06:00,
2013-05-12 12:11:00,93.6,42.3,29.94,ENE,61,2.0,4.0,17,0.00,,CLR,0.00,VWS V14.01,2013-05-12 19:11:00,
2013-05-12 12:16:00,93.9,37.5,29.94,ENE,67,6.0,6.0,14,0.00,,CLR,0.00,VWS V14.01,2013-05-12 19:16:00,
2013-05-12 12:21:00,93.6,35.4,29.94,NE,42,10.0,12.0,13,0.00,,CLR,0.00,VWS V14.01,2013-05-12 19:21:00,
2013-05-12 12:26:00,93.5,33.3,29.94,NE,43,1.0,1.0,12,0.00,,CLR,0.00,VWS V14.01,2013-05-12 19:26:00,
2013-05-12 12:31:00,93.7,35.5,29.93,ENE,69,3.0,8.0,13,0.00,,CLR,0.00,VWS V14.01,2013-05-12 19:31:00,
2013-05-12 12:36:00,93.8,35.6,29.93,ENE,69,0.0,1.0,13,0.00,,CLR,0.00,VWS V14.01,2013-05-12 19:36:00,
2013-05-12 12:41:00,93.8,33.6,29.93,East,86,5.0,5.0,12,0.00,,CLR,0.00,VWS V14.01,2013-05-12 19:41:00,
2013-05-12 12:46:00,93.8,35.6,29.93,East,86,0.0,1.0,13,0.00,,CLR,0.00,VWS V14.01,2013-05-12 19:46:00,
2013-05-12 12:51:00,94.0,37.6,29.93,East,84,4.0,5.0,14,0.00,,CLR,0.00,VWS V14.01,2013-05-12 19:51:00,
2013-05-12 12:56:00,94.2,33.9,29.92,ENE,69,4.0,6.0,12,0.00,,CLR,0.00,VWS V14.01,2013-05-12 19:56:00,
2013-05-12 13:01:00,94.6,36.2,29.92,NE,52,1.0,3.0,13,0.00,,CLR,0.00,VWS V14.01,2013-05-12 20:01:00,
2013-05-12 13:07:00,94.7,36.3,29.92,NNE,14,6.0,7.0,13,0.00,,CLR,0.00,VWS V14.01,2013-05-12 20:07:00,
2013-05-12 13:12:00,95.0,34.5,29.92,WNW,292,0.0,1.0,12,0.00,,CLR,0.00,VWS V14.01,2013-05-12 20:12:00,
2013-05-12 13:17:00,95.2,34.7,29.92,WNW,293,6.0,7.0,12,0.00,,CLR,0.00,VWS V14.01,2013-05-12 20:17:00,
2013-05-12 13:22:00,95.1,34.6,29.91,NNE,32,3.0,6.0,12,0.00,,CLR,0.00,VWS V14.01,2013-05-12 20:22:00,
2013-05-12 13:27:00,95.3,34.7,29.91,ENE,62,8.0,8.0,12,0.00,,CLR,0.00,VWS V14.01,2013-05-12 20:27:00,
2013-05-12 13:32:00,94.9,36.4,29.91,ESE,107,0.0,5.0,13,0.00,,CLR,0.00,VWS V14.01,2013-05-12 20:32:00,
2013-05-12 13:37:00,94.6,34.2,29.91,East,82,6.0,11.0,12,0.00,,CLR,0.00,VWS V14.01,2013-05-12 20:37:00,
2013-05-12 13:42:00,94.4,37.9,29.91,East,92,0.0,2.0,14,0.00,,CLR,0.00,VWS V14.01,2013-05-12 20:42:00,
2013-05-12 13:47:00,94.4,34.0,29.91,East,96,0.0,2.0,12,0.00,,CLR,0.00,VWS V14.01,2013-05-12 20:47:00,
2013-05-12 13:52:00,94.5,36.1,29.91,ENE,77,2.0,3.0,13,0.00,,CLR,0.00,VWS V14.01,2013-05-12 20:52:00,
2013-05-12 13:57:00,94.5,36.1,29.90,ESE,109,0.0,5.0,13,0.00,,CLR,0.00,VWS V14.01,2013-05-12 20:57:00,
2013-05-12 14:02:00,95.0,38.4,29.90,SSE,154,0.0,7.0,14,0.00,,CLR,0.00,VWS V14.01,2013-05-12 21:02:00,
2013-05-12 14:07:00,95.2,36.7,29.90,SSE,154,0.0,0.0,13,0.00,,CLR,0.00,VWS V14.01,2013-05-12 21:07:00,
2013-05-12 14:12:00,95.5,34.9,29.90,South,171,2.0,5.0,12,0.00,,CLR,0.00,VWS V14.01,2013-05-12 21:12:00,
2013-05-12 14:17:00,95.7,35.0,29.89,South,173,0.0,0.0,12,0.00,,CLR,0.00,VWS V14.01,2013-05-12 21:17:00,
2013-05-12 14:22:00,96.3,33.3,29.89,SW,231,0.0,0.0,11,0.00,,CLR,0.00,VWS V14.01,2013-05-12 21:22:00,
2013-05-12 14:27:00,96.5,35.7,29.89,ENE,63,8.0,8.0,12,0.00,,CLR,0.00,VWS V14.01,2013-05-12 21:27:00,
2013-05-12 14:33:00,96.3,33.3,29.88,NE,47,8.0,12.0,11,0.00,,CLR,0.00,VWS V14.01,2013-05-12 21:33:00,
2013-05-12 14:38:00,96.1,35.3,29.89,ENE,63,0.0,6.0,12,0.00,,CLR,0.00,VWS V14.01,2013-05-12 21:38:00,
2013-05-12 14:43:00,95.6,35.0,29.88,East,94,2.0,10.0,12,0.00,,CLR,0.00,VWS V14.01,2013-05-12 21:43:00,
2013-05-12 14:48:00,95.5,34.9,29.88,ENE,77,2.0,11.0,12,0.00,,CLR,0.00,VWS V14.01,2013-05-12 21:48:00,
2013-05-12 14:53:00,95.0,34.5,29.87,ENE,69,0.0,7.0,12,0.00,,CLR,0.00,VWS V14.01,2013-05-12 21:53:00,
2013-05-12 14:58:00,94.8,34.3,29.88,ENE,62,0.0,1.0,12,0.00,,CLR,0.00,VWS V14.01,2013-05-12 21:58:00,
2013-05-12 15:03:00,94.3,36.0,29.87,SSE,161,4.0,5.0,13,0.00,,CLR,0.00,VWS V14.01,2013-05-12 22:03:00,
2013-05-12 15:08:00,94.4,34.0,29.87,SSE,162,0.0,2.0,12,0.00,,CLR,0.00,VWS V14.01,2013-05-12 22:08:00,
2013-05-12 15:13:00,95.4,34.8,29.87,SSE,165,1.0,6.0,12,0.00,,CLR,0.00,VWS V14.01,2013-05-12 22:13:00,
2013-05-12 15:18:00,95.7,37.0,29.87,SSE,165,2.0,2.0,13,0.00,,CLR,0.00,VWS V14.01,2013-05-12 22:18:00,
2013-05-12 15:23:00,96.1,35.3,29.86,SSE,165,0.0,4.0,12,0.00,,CLR,0.00,VWS V14.01,2013-05-12 22:23:00,
2013-05-12 15:28:00,96.2,37.4,29.86,SW,215,4.0,5.0,13,0.00,,CLR,0.00,VWS V14.01,2013-05-12 22:28:00,
2013-05-12 15:33:00,96.0,35.3,29.86,NNE,26,0.0,3.0,12,0.00,,CLR,0.00,VWS V14.01,2013-05-12 22:33:00,
2013-05-12 15:38:00,95.4,32.6,29.85,WNW,300,4.0,7.0,11,0.00,,CLR,0.00,VWS V14.01,2013-05-12 22:38:00,
2013-05-12 15:43:00,95.0,34.5,29.85,West,278,4.0,7.0,12,0.00,,CLR,0.00,VWS V14.01,2013-05-12 22:43:00,
2013-05-12 15:48:00,94.6,38.1,29.85,West,262,2.0,4.0,14,0.00,,CLR,0.00,VWS V14.01,2013-05-12 22:48:00,
2013-05-12 15:54:00,94.7,38.2,29.85,SW,223,3.0,7.0,14,0.00,,CLR,0.00,VWS V14.01,2013-05-12 22:54:00,
2013-05-12 15:59:00,94.7,39.9,29.85,SW,229,3.0,8.0,15,0.00,,CLR,0.00,VWS V14.01,2013-05-12 22:59:00,
2013-05-12 16:04:00,94.4,39.7,29.85,South,173,0.0,10.0,15,0.00,,CLR,0.00,VWS V14.01,2013-05-12 23:04:00,
2013-05-12 16:09:00,93.9,39.3,29.84,SSW,209,0.0,7.0,15,0.00,,CLR,0.00,VWS V14.01,2013-05-12 23:09:00,
2013-05-12 16:14:00,93.5,40.6,29.84,SSW,212,0.0,4.0,16,0.00,,CLR,0.00,VWS V14.01,2013-05-12 23:14:00,
2013-05-12 16:19:00,93.6,39.0,29.84,West,263,7.0,7.0,15,0.00,,CLR,0.00,VWS V14.01,2013-05-12 23:19:00,
2013-05-12 16:24:00,93.1,38.7,29.84,SW,232,5.0,12.0,15,0.00,,CLR,0.00,VWS V14.01,2013-05-12 23:24:00,
2013-05-12 16:29:00,92.7,40.0,29.84,South,186,2.0,4.0,16,0.00,,CLR,0.00,VWS V14.01,2013-05-12 23:29:00,
2013-05-12 16:34:00,92.2,39.6,29.84,WSW,240,2.0,11.0,16,0.00,,CLR,0.00,VWS V14.01,2013-05-12 23:34:00,
2013-05-12 16:39:00,91.8,39.3,29.84,WSW,248,3.0,4.0,16,0.00,,CLR,0.00,VWS V14.01,2013-05-12 23:39:00,
2013-05-12 16:44:00,91.4,39.0,29.83,WSW,249,2.0,13.0,16,0.00,,CLR,0.00,VWS V14.01,2013-05-12 23:44:00,
2013-05-12 16:49:00,91.1,40.3,29.83,WSW,238,5.0,11.0,17,0.00,,CLR,0.00,VWS V14.01,2013-05-12 23:49:00,
2013-05-12 16:54:00,91.2,41.8,29.83,SW,228,4.0,13.0,18,0.00,,CLR,0.00,VWS V14.01,2013-05-12 23:54:00,
2013-05-12 16:59:00,91.4,42.0,29.83,WSW,237,7.0,7.0,18,0.00,,CLR,0.00,VWS V14.01,2013-05-12 23:59:00,
2013-05-12 17:04:00,91.8,40.8,29.83,SW,225,2.0,11.0,17,0.00,,CLR,0.00,VWS V14.01,2013-05-13 00:04:00,
2013-05-12 17:09:00,92.2,39.6,29.83,WSW,239,1.0,11.0,16,0.00,,CLR,0.00,VWS V14.01,2013-05-13 00:09:00,
2013-05-12 17:14:00,92.4,39.8,29.83,SW,234,5.0,13.0,16,0.00,,CLR,0.00,VWS V14.01,2013-05-13 00:14:00,
2013-05-12 17:20:00,92.4,38.1,29.83,WSW,251,7.0,12.0,15,0.00,,CLR,0.00,VWS V14.01,2013-05-13 00:20:00,
2013-05-12 17:25:00,92.4,38.1,29.83,WSW,252,0.0,11.0,15,0.00,,CLR,0.00,VWS V14.01,2013-05-13 00:25:00,
2013-05-12 17:30:00,92.7,40.0,29.82,SW,230,3.0,7.0,16,0.00,,CLR,0.00,VWS V14.01,2013-05-13 00:30:00,
2013-05-12 17:35:00,92.5,38.2,29.82,WSW,240,1.0,10.0,15,0.00,,CLR,0.00,VWS V14.01,2013-05-13 00:35:00,
2013-05-12 17:40:00,92.3,39.7,29.82,WSW,250,6.0,7.0,16,0.00,,CLR,0.00,VWS V14.01,2013-05-13 00:40:00,
2013-05-12 17:45:00,92.5,39.8,29.83,SW,225,5.0,7.0,16,0.00,,CLR,0.00,VWS V14.01,2013-05-13 00:45:00,
2013-05-12 17:50:00,92.4,38.1,29.82,WSW,246,5.0,11.0,15,0.00,,CLR,0.00,VWS V14.01,2013-05-13 00:50:00,
2013-05-12 17:55:00,92.2,37.9,29.82,WSW,239,4.0,5.0,15,0.00,,CLR,0.00,VWS V14.01,2013-05-13 00:55:00,
2013-05-12 18:00:00,92.0,37.8,29.82,WSW,258,4.0,7.0,15,0.00,,CLR,0.00,VWS V14.01,2013-05-13 01:00:00,
2013-05-12 18:05:00,91.9,37.7,29.82,WSW,246,10.0,14.0,15,0.00,,CLR,0.00,VWS V14.01,2013-05-13 01:05:00,
2013-05-12 18:10:00,91.3,37.2,29.82,WSW,249,7.0,8.0,15,0.00,,CLR,0.00,VWS V14.01,2013-05-13 01:10:00,
2013-05-12 18:15:00,90.9,38.5,29.82,SW,227,4.0,4.0,16,0.00,,CLR,0.00,VWS V14.01,2013-05-13 01:15:00,
2013-05-12 18:20:00,90.9,38.5,29.82,SW,229,3.0,5.0,16,0.00,,CLR,0.00,VWS V14.01,2013-05-13 01:20:00,
2013-05-12 18:25:00,90.8,36.8,29.82,SW,232,5.0,8.0,15,0.00,,CLR,0.00,VWS V14.01,2013-05-13 01:25:00,
2013-05-12 18:30:00,90.6,36.7,29.82,WSW,238,2.0,4.0,15,0.00,,CLR,0.00,VWS V14.01,2013-05-13 01:30:00,
2013-05-12 18:35:00,90.5,36.6,29.82,SW,234,2.0,4.0,15,0.00,,CLR,0.00,VWS V14.01,2013-05-13 01:35:00,
2013-05-12 18:40:00,90.3,36.4,29.83,WSW,242,4.0,10.0,15,0.00,,CLR,0.00,VWS V14.01,2013-05-13 01:40:00,
2013-05-12 18:45:00,89.8,34.3,29.83,SW,236,14.0,14.0,14,0.00,,CLR,0.00,VWS V14.01,2013-05-13 01:45:00,
2013-05-12 18:51:00,89.3,32.1,29.83,SW,215,10.0,11.0,13,0.00,,CLR,0.00,VWS V14.01,2013-05-13 01:51:00,
2013-05-12 18:56:00,88.9,31.8,29.83,SW,233,6.0,8.0,13,0.00,,CLR,0.00,VWS V14.01,2013-05-13 01:56:00,
2013-05-12 19:01:00,88.6,31.5,29.83,SW,214,0.0,7.0,13,0.00,,CLR,0.00,VWS V14.01,2013-05-13 02:01:00,
2013-05-12 19:06:00,88.5,33.3,29.83,SW,215,2.0,5.0,14,0.00,,CLR,0.00,VWS V14.01,2013-05-13 02:06:00,
2013-05-12 19:11:00,88.4,33.2,29.83,WSW,242,1.0,4.0,14,0.00,,CLR,0.00,VWS V14.01,2013-05-13 02:11:00,
2013-05-12 19:16:00,88.2,33.0,29.84,SW,234,0.0,2.0,14,0.00,,CLR,0.00,VWS V14.01,2013-05-13 02:16:00,
2013-05-12 19:21:00,88.0,32.9,29.84,SW,236,2.0,4.0,14,0.00,,CLR,0.00,VWS V14.01,2013-05-13 02:21:00,
2013-05-12 19:26:00,87.7,32.7,29.84,WSW,243,2.0,4.0,14,0.00,,CLR,0.00,VWS V14.01,2013-05-13 02:26:00,
2013-05-12 19:31:00,87.3,34.0,29.84,WSW,247,3.0,3.0,15,0.00,,CLR,0.00,VWS V14.01,2013-05-13 02:31:00,
2013-05-12 19:36:00,86.8,33.7,29.84,WSW,248,0.0,3.0,15,0.00,,CLR,0.00,VWS V14.01,2013-05-13 02:36:00,
2013-05-12 19:41:00,86.3,34.9,29.84,West,270,7.0,10.0,16,0.00,,CLR,0.00,VWS V14.01,2013-05-13 02:41:00,
2013-05-12 19:46:00,85.9,36.1,29.84,WSW,254,4.0,5.0,17,0.00,,CLR,0.00,VWS V14.01,2013-05-13 02:46:00,
2013-05-12 19:51:00,85.4,37.1,29.84,WSW,249,6.0,6.0,18,0.00,,CLR,0.00,VWS V14.01,2013-05-13 02:51:00,
2013-05-12 19:56:00,85.0,38.2,29.84,SW,236,2.0,10.0,19,0.00,,CLR,0.00,VWS V14.01,2013-05-13 02:56:00,
2013-05-12 20:01:00,84.8,39.3,29.84,West,275,5.0,11.0,20,0.00,,CLR,0.00,VWS V14.01,2013-05-13 03:01:00,
2013-05-12 20:06:00,84.5,39.1,29.84,WSW,243,0.0,3.0,20,0.00,,CLR,0.00,VWS V14.01,2013-05-13 03:06:00,
2013-05-12 20:12:00,84.3,38.9,29.85,WSW,246,0.0,4.0,20,0.00,,CLR,0.00,VWS V14.01,2013-05-13 03:12:00,
2013-05-12 20:17:00,84.0,41.1,29.85,WSW,245,1.0,5.0,22,0.00,,CLR,0.00,VWS V14.01,2013-05-13 03:17:00,
2013-05-12 20:22:00,83.7,42.0,29.85,West,262,0.0,3.0,23,0.00,,CLR,0.00,VWS V14.01,2013-05-13 03:22:00,
2013-05-12 20:27:00,83.4,42.9,29.85,West,275,1.0,9.0,24,0.00,,CLR,0.00,VWS V14.01,2013-05-13 03:27:00,
2013-05-12 20:32:00,83.1,43.7,29.85,West,269,5.0,6.0,25,0.00,,CLR,0.00,VWS V14.01,2013-05-13 03:32:00,
2013-05-12 20:37:00,82.9,44.5,29.85,West,271,1.0,9.0,26,0.00,,CLR,0.00,VWS V14.01,2013-05-13 03:37:00,
2013-05-12 20:42:00,82.8,44.5,29.85,West,270,9.0,12.0,26,0.00,,CLR,0.00,VWS V14.01,2013-05-13 03:42:00,
2013-05-12 20:47:00,82.7,45.3,29.85,West,275,8.0,10.0,27,0.00,,CLR,0.00,VWS V14.01,2013-05-13 03:47:00,
2013-05-12 20:52:00,82.6,45.3,29.85,West,273,7.0,11.0,27,0.00,,CLR,0.00,VWS V14.01,2013-05-13 03:52:00,
2013-05-12 20:57:00,82.5,45.2,29.85,West,262,2.0,8.0,27,0.00,,CLR,0.00,VWS V14.01,2013-05-13 03:57:00,
2013-05-12 21:01:00,82.3,46.0,29.86,West,275,6.0,11.0,28,0.00,,CLR,0.00,VWS V14.01,2013-05-13 04:01:00,
2013-05-12 21:02:00,82.3,46.0,29.85,WSW,258,5.0,15.0,28,0.00,,CLR,0.00,VWS V14.01,2013-05-13 04:02:00,
2013-05-12 21:03:00,82.3,46.0,29.85,West,274,9.0,15.0,28,0.00,,CLR,0.00,VWS V14.01,2013-05-13 04:03:00,
2013-05-12 21:04:00,82.2,45.9,29.85,WNW,285,7.0,15.0,28,0.00,,CLR,0.00,VWS V14.01,2013-05-13 04:04:00,
2013-05-12 21:05:00,82.2,45.9,29.85,West,259,2.0,11.0,28,0.00,,CLR,0.00,VWS V14.01,2013-05-13 04:05:00,
2013-05-12 21:10:00,82.1,45.8,29.86,West,280,2.0,6.0,28,0.00,,CLR,0.00,VWS V14.01,2013-05-13 04:10:00,
2013-05-12 21:15:00,81.9,45.6,29.86,West,265,4.0,6.0,28,0.00,,CLR,0.00,VWS V14.01,2013-05-13 04:15:00,
2013-05-12 21:21:00,81.8,45.5,29.86,West,275,7.0,9.0,28,0.00,,CLR,0.00,VWS V14.01,2013-05-13 04:21:00,
2013-05-12 21:26:00,81.7,45.5,29.86,West,269,3.0,13.0,28,0.00,,CLR,0.00,VWS V14.01,2013-05-13 04:26:00,
2013-05-12 21:31:00,81.7,45.5,29.86,WNW,282,2.0,11.0,28,0.00,,CLR,0.00,VWS V14.01,2013-05-13 04:31:00,
2013-05-12 21:36:00,81.6,44.4,29.86,West,271,7.0,11.0,27,0.00,,CLR,0.00,VWS V14.01,2013-05-13 04:36:00,
2013-05-12 21:41:00,81.7,44.5,29.86,West,281,5.0,9.0,27,0.00,,CLR,0.00,VWS V14.01,2013-05-13 04:41:00,
2013-05-12 21:46:00,81.7,43.5,29.86,West,272,4.0,13.0,26,0.00,,CLR,0.00,VWS V14.01,2013-05-13 04:46:00,
2013-05-12 21:51:00,81.6,43.4,29.87,West,267,2.0,12.0,26,0.00,,CLR,0.00,VWS V14.01,2013-05-13 04:51:00,
2013-05-12 21:56:00,81.5,43.3,29.87,West,277,6.0,11.0,26,0.00,,CLR,0.00,VWS V14.01,2013-05-13 04:56:00,
2013-05-12 22:01:00,81.5,43.3,29.87,West,278,8.0,11.0,26,0.00,,CLR,0.00,VWS V14.01,2013-05-13 05:01:00,
2013-05-12 22:06:00,81.5,42.3,29.87,West,277,2.0,9.0,25,0.00,,CLR,0.00,VWS V14.01,2013-05-13 05:06:00,
2013-05-12 22:11:00,81.5,42.3,29.87,West,268,0.0,9.0,25,0.00,,CLR,0.00,VWS V14.01,2013-05-13 05:11:00,
2013-05-12 22:16:00,81.4,42.2,29.87,West,279,9.0,14.0,25,0.00,,CLR,0.00,VWS V14.01,2013-05-13 05:16:00,
2013-05-12 22:21:00,81.3,41.1,29.87,WNW,284,8.0,9.0,24,0.00,,CLR,0.00,VWS V14.01,2013-05-13 05:21:00,
2013-05-12 22:26:00,81.3,41.1,29.87,West,279,0.0,8.0,24,0.00,,CLR,0.00,VWS V14.01,2013-05-13 05:26:00,
2013-05-12 22:32:00,81.3,41.1,29.87,West,275,8.0,10.0,24,0.00,,CLR,0.00,VWS V14.01,2013-05-13 05:32:00,
2013-05-12 22:37:00,81.3,40.0,29.87,West,265,7.0,14.0,23,0.00,,CLR,0.00,VWS V14.01,2013-05-13 05:37:00,
2013-05-12 22:42:00,81.3,40.0,29.87,West,265,0.0,8.0,23,0.00,,CLR,0.00,VWS V14.01,2013-05-13 05:42:00,
2013-05-12 22:47:00,81.3,40.0,29.87,West,271,2.0,11.0,23,0.00,,CLR,0.00,VWS V14.01,2013-05-13 05:47:00,
2013-05-12 22:52:00,81.4,38.9,29.87,West,276,2.0,16.0,22,0.00,,CLR,0.00,VWS V14.01,2013-05-13 05:52:00,
2013-05-12 22:57:00,81.4,38.9,29.87,West,272,2.0,9.0,22,0.00,,CLR,0.00,VWS V14.01,2013-05-13 05:57:00,
2013-05-12 23:02:00,81.4,37.8,29.87,West,279,11.0,11.0,21,0.00,,CLR,0.00,VWS V14.01,2013-05-13 06:02:00,
2013-05-12 23:07:00,81.4,37.8,29.87,West,270,4.0,10.0,21,0.00,,CLR,0.00,VWS V14.01,2013-05-13 06:07:00,
2013-05-12 23:12:00,81.3,37.7,29.87,West,277,8.0,11.0,21,0.00,,CLR,0.00,VWS V14.01,2013-05-13 06:12:00,
2013-05-12 23:17:00,81.2,37.6,29.87,WNW,290,6.0,12.0,21,0.00,,CLR,0.00,VWS V14.01,2013-05-13 06:17:00,
2013-05-12 23:22:00,81.3,37.7,29.87,West,281,1.0,7.0,21,0.00,,CLR,0.00,VWS V14.01,2013-05-13 06:22:00,
2013-05-12 23:27:00,81.3,37.7,29.87,West,270,8.0,9.0,21,0.00,,CLR,0.00,VWS V14.01,2013-05-13 06:27:00,
2013-05-12 23:32:00,81.2,37.6,29.87,West,271,0.0,8.0,21,0.00,,CLR,0.00,VWS V14.01,2013-05-13 06:32:00,
2013-05-12 23:37:00,81.2,36.4,29.87,West,277,9.0,11.0,20,0.00,,CLR,0.00,VWS V14.01,2013-05-13 06:37:00,
2013-05-12 23:43:00,81.2,36.4,29.87,WNW,286,7.0,9.0,20,0.00,,CLR,0.00,VWS V14.01,2013-05-13 06:43:00,
2013-05-12 23:48:00,81.2,36.4,29.87,WNW,288,5.0,12.0,20,0.00,,CLR,0.00,VWS V14.01,2013-05-13 06:48:00,
2013-05-12 23:53:00,81.2,36.4,29.87,West,279,9.0,12.0,20,0.00,,CLR,0.00,VWS V14.01,2013-05-13 06:53:00,
2013-05-12 23:58:00,81.3,36.4,29.87,West,279,5.0,12.0,20,0.00,,CLR,0.00,VWS V14.01,2013-05-13 06:58:00,